Time,TemperatureF,DewpointF,PressureIn,WindDirection,WindDirectionDegrees,WindSpeedMPH,WindSpeedGustMPH,Humidity,HourlyPrecipIn,Conditions,Clouds,dailyrainin,SoftwareType,DateUTC
2013-02-14 00:02:00,28.0,24.0,-100.00,SE,135,3.0,7.0,87,0.00,,,-99.99,,2013-02-14 05:02:00,
2013-02-14 00:11:00,28.0,25.0,-100.00,South,175,2.0,6.0,87,0.00,,,-99.99,,2013-02-14 05:11:00,
2013-02-14 00:22:00,28.0,25.0,-100.00,South,170,2.0,6.0,87,0.00,,,-99.99,,2013-02-14 05:22:00,
2013-02-14 00:32:00,28.0,25.0,-100.00,SSE,155,1.0,5.0,87,0.00,,,-99.99,,2013-02-14 05:32:00,
2013-02-14 00:42:00,28.0,25.0,-100.00,SE,145,3.0,6.0,88,0.00,,,-99.99,,2013-02-14 05:42:00,
2013-02-14 00:52:00,28.0,25.0,-100.00,SE,125,4.0,7.0,88,0.00,,,-99.99,,2013-02-14 05:52:00,
2013-02-14 01:02:00,28.0,25.0,-100.00,SSE,155,3.0,7.0,88,0.00,,,-99.99,,2013-02-14 06:02:00,
2013-02-14 01:11:00,28.0,25.0,-100.00,SE,135,4.0,9.0,88,0.00,,,-99.99,,2013-02-14 06:11:00,
2013-02-14 01:21:00,28.0,26.0,-100.00,SE,140,4.0,7.0,89,0.00,,,-99.99,,2013-02-14 06:21:00,
2013-02-14 01:32:00,29.0,26.0,-100.00,SSE,150,4.0,7.0,88,0.00,,,-99.99,,2013-02-14 06:32:00,
2013-02-14 01:42:00,29.0,26.0,-100.00,SSE,155,3.0,7.0,88,0.00,,,-99.99,,2013-02-14 06:42:00,
2013-02-14 01:51:00,29.0,26.0,-100.00,SSE,155,2.0,6.0,88,0.00,,,-99.99,,2013-02-14 06:51:00,
2013-02-14 02:01:00,29.0,26.0,-100.00,SSE,160,1.0,6.0,88,0.00,,,-99.99,,2013-02-14 07:01:00,
2013-02-14 02:11:00,29.0,26.0,-100.00,SSE,165,3.0,6.0,87,0.00,,,-99.99,,2013-02-14 07:11:00,
2013-02-14 02:21:00,30.0,27.0,-100.00,SSE,150,3.0,7.0,87,0.00,,,-99.99,,2013-02-14 07:21:00,
2013-02-14 02:32:00,30.0,27.0,-100.00,South,170,2.0,6.0,87,0.00,,,-99.99,,2013-02-14 07:32:00,
2013-02-14 02:42:00,31.0,27.0,-100.00,SSE,150,4.0,7.0,87,0.00,,,-99.99,,2013-02-14 07:42:00,
2013-02-14 02:51:00,31.0,28.0,-100.00,SSW,195,4.0,9.0,85,0.00,,,-99.99,,2013-02-14 07:51:00,
2013-02-14 03:01:00,32.0,28.0,-100.00,South,185,3.0,12.0,84,0.00,,,-99.99,,2013-02-14 08:01:00,
2013-02-14 03:11:00,32.0,28.0,-100.00,South,180,7.0,13.0,84,0.00,,,-99.99,,2013-02-14 08:11:00,
2013-02-14 03:21:00,32.0,28.0,-100.00,SSE,155,5.0,11.0,84,0.00,,,-99.99,,2013-02-14 08:21:00,
2013-02-14 03:32:00,32.0,28.0,-100.00,SSE,155,6.0,12.0,84,0.00,,,-99.99,,2013-02-14 08:32:00,
2013-02-14 03:43:00,32.0,28.0,-100.00,SSE,155,6.0,14.0,85,0.00,,,-99.99,,2013-02-14 08:43:00,
2013-02-14 03:52:00,32.0,28.0,-100.00,SSE,150,7.0,16.0,85,0.00,,,-99.99,,2013-02-14 08:52:00,
2013-02-14 04:02:00,32.0,28.0,-100.00,SSE,165,6.0,17.0,85,0.00,,,-99.99,,2013-02-14 09:02:00,
2013-02-14 04:11:00,33.0,29.0,-100.00,South,175,7.0,21.0,85,0.00,,,-99.99,,2013-02-14 09:11:00,
2013-02-14 04:21:00,33.0,29.0,-100.00,South,185,7.0,21.0,86,0.00,,,-99.99,,2013-02-14 09:21:00,
2013-02-14 04:32:00,32.0,29.0,-100.00,South,170,7.0,12.0,86,0.00,,,-99.99,,2013-02-14 09:32:00,
2013-02-14 04:42:00,33.0,29.0,-100.00,South,170,7.0,16.0,86,0.00,,,-99.99,,2013-02-14 09:42:00,
2013-02-14 04:51:00,32.0,29.0,-100.00,South,180,7.0,17.0,86,0.00,,,-99.99,,2013-02-14 09:51:00,
2013-02-14 05:02:00,32.0,29.0,-100.00,South,170,6.0,13.0,87,0.00,,,-99.99,,2013-02-14 10:02:00,
2013-02-14 05:11:00,32.0,29.0,-100.00,South,180,6.0,11.0,88,0.00,,,-99.99,,2013-02-14 10:11:00,
2013-02-14 05:21:00,32.0,29.0,-100.00,South,170,5.0,12.0,88,0.00,,,-99.99,,2013-02-14 10:21:00,
2013-02-14 05:32:00,32.0,29.0,-100.00,South,180,6.0,9.0,88,0.00,,,-99.99,,2013-02-14 10:32:00,
2013-02-14 05:42:00,32.0,29.0,-100.00,South,175,6.0,14.0,88,0.00,,,-99.99,,2013-02-14 10:42:00,
2013-02-14 05:52:00,32.0,29.0,-100.00,South,185,7.0,13.0,89,0.00,,,-99.99,,2013-02-14 10:52:00,
2013-02-14 06:02:00,32.0,29.0,-100.00,South,185,10.0,16.0,89,0.00,,,-99.99,,2013-02-14 11:02:00,
2013-02-14 06:11:00,32.0,29.0,-100.00,South,175,7.0,12.0,90,0.00,,,-99.99,,2013-02-14 11:11:00,
2013-02-14 06:21:00,32.0,29.0,-100.00,South,175,6.0,15.0,90,0.00,,,-99.99,,2013-02-14 11:21:00,
2013-02-14 06:32:00,31.0,29.0,-100.00,SSW,205,4.0,12.0,91,0.00,,,-99.99,,2013-02-14 11:32:00,
2013-02-14 06:42:00,31.0,29.0,-100.00,South,190,8.0,13.0,92,0.00,,,-99.99,,2013-02-14 11:42:00,
2013-02-14 06:52:00,31.0,29.0,-100.00,South,170,7.0,16.0,92,0.00,,,-99.99,,2013-02-14 11:52:00,
2013-02-14 07:02:00,31.0,29.0,-100.00,South,180,7.0,11.0,92,0.00,,,-99.99,,2013-02-14 12:02:00,
2013-02-14 07:12:00,31.0,29.0,-100.00,South,175,7.0,12.0,93,0.00,,,-99.99,,2013-02-14 12:12:00,
2013-02-14 07:22:00,31.0,29.0,-100.00,SSE,165,6.0,10.0,93,0.00,,,-99.99,,2013-02-14 12:22:00,
2013-02-14 07:32:00,31.0,29.0,-100.00,SSE,165,6.0,14.0,93,0.00,,,-99.99,,2013-02-14 12:32:00,
2013-02-14 07:42:00,31.0,29.0,-100.00,South,170,7.0,11.0,93,0.00,,,-99.99,,2013-02-14 12:42:00,
2013-02-14 07:53:00,31.0,29.0,-100.00,SSE,155,6.0,16.0,93,0.00,,,-99.99,,2013-02-14 12:53:00,
2013-02-14 08:02:00,31.0,29.0,-100.00,SSE,155,5.0,16.0,93,0.00,,,-99.99,,2013-02-14 13:02:00,
2013-02-14 08:11:00,31.0,29.0,-100.00,South,175,7.0,15.0,94,0.00,,,-99.99,,2013-02-14 13:11:00,
2013-02-14 08:21:00,31.0,29.0,-100.00,South,180,5.0,12.0,94,0.00,,,-99.99,,2013-02-14 13:21:00,
2013-02-14 08:32:00,31.0,29.0,-100.00,South,185,8.0,13.0,94,0.00,,,-99.99,,2013-02-14 13:32:00,
2013-02-14 08:42:00,31.0,29.0,-100.00,SSW,195,7.0,16.0,94,0.00,,,-99.99,,2013-02-14 13:42:00,
2013-02-14 08:51:00,31.0,29.0,-100.00,South,180,7.0,15.0,94,0.00,,,-99.99,,2013-02-14 13:51:00,
2013-02-14 09:01:00,31.0,30.0,-100.00,South,185,7.0,12.0,94,0.00,,,-99.99,,2013-02-14 14:01:00,
2013-02-14 09:11:00,31.0,30.0,-100.00,SSE,160,6.0,13.0,94,0.00,,,-99.99,,2013-02-14 14:11:00,
2013-02-14 09:21:00,31.0,30.0,-100.00,SSE,150,6.0,11.0,94,0.00,,,-99.99,,2013-02-14 14:21:00,
2013-02-14 09:32:00,31.0,30.0,-100.00,SSE,165,7.0,12.0,94,0.00,,,-99.99,,2013-02-14 14:32:00,
2013-02-14 09:42:00,31.0,30.0,-100.00,South,170,8.0,12.0,94,0.00,,,-99.99,,2013-02-14 14:42:00,
2013-02-14 09:52:00,31.0,30.0,-100.00,South,170,8.0,12.0,94,0.00,,,-99.99,,2013-02-14 14:52:00,
2013-02-14 10:02:00,31.0,30.0,-100.00,South,180,5.0,13.0,94,0.00,,,-99.99,,2013-02-14 15:02:00,
2013-02-14 10:11:00,31.0,30.0,-100.00,South,180,6.0,12.0,94,0.00,,,-99.99,,2013-02-14 15:11:00,
2013-02-14 10:21:00,31.0,30.0,-100.00,South,185,7.0,14.0,94,0.00,,,-99.99,,2013-02-14 15:21:00,
2013-02-14 10:32:00,32.0,30.0,-100.00,South,170,7.0,12.0,94,0.00,,,-99.99,,2013-02-14 15:32:00,
2013-02-14 10:42:00,32.0,31.0,-100.00,SE,145,6.0,12.0,94,0.00,,,-99.99,,2013-02-14 15:42:00,
2013-02-14 10:52:00,32.0,31.0,-100.00,South,180,5.0,12.0,94,0.00,,,-99.99,,2013-02-14 15:52:00,
2013-02-14 11:02:00,32.0,31.0,-100.00,SE,140,6.0,12.0,94,0.00,,,-99.99,,2013-02-14 16:02:00,
2013-02-14 11:11:00,32.0,31.0,-100.00,SE,130,8.0,15.0,94,0.00,,,-99.99,,2013-02-14 16:11:00,
2013-02-14 11:21:00,32.0,31.0,-100.00,SE,125,7.0,16.0,94,0.00,,,-99.99,,2013-02-14 16:21:00,
2013-02-14 11:32:00,32.0,31.0,-100.00,SE,135,7.0,16.0,94,0.00,,,-99.99,,2013-02-14 16:32:00,
2013-02-14 11:41:00,33.0,31.0,-100.00,SE,140,7.0,14.0,94,0.00,,,-99.99,,2013-02-14 16:41:00,
2013-02-14 11:51:00,32.0,31.0,-100.00,SE,140,8.0,16.0,94,0.00,,,-99.99,,2013-02-14 16:51:00,
2013-02-14 12:01:00,33.0,31.0,-100.00,SE,140,7.0,15.0,94,0.00,,,-99.99,,2013-02-14 17:01:00,
2013-02-14 12:11:00,33.0,31.0,-100.00,SE,125,7.0,17.0,94,0.00,,,-99.99,,2013-02-14 17:11:00,
2013-02-14 12:21:00,33.0,32.0,-100.00,SSE,150,7.0,16.0,94,0.00,,,-99.99,,2013-02-14 17:21:00,
2013-02-14 12:32:00,33.0,32.0,-100.00,SSE,150,7.0,16.0,94,0.00,,,-99.99,,2013-02-14 17:32:00,
2013-02-14 12:42:00,33.0,32.0,-100.00,SE,140,8.0,20.0,93,0.00,,,-99.99,,2013-02-14 17:42:00,
2013-02-14 12:52:00,33.0,32.0,-100.00,SE,140,8.0,20.0,93,0.00,,,-99.99,,2013-02-14 17:52:00,
2013-02-14 13:01:00,34.0,32.0,-100.00,SSE,150,7.0,14.0,93,0.00,,,-99.99,,2013-02-14 18:01:00,
2013-02-14 13:11:00,34.0,33.0,-100.00,SSE,150,9.0,16.0,93,0.00,,,-99.99,,2013-02-14 18:11:00,
2013-02-14 13:23:00,35.0,33.0,-100.00,SSE,165,8.0,17.0,92,0.00,,,-99.99,,2013-02-14 18:23:00,
2013-02-14 13:32:00,35.0,33.0,-100.00,SE,135,11.0,19.0,91,0.00,,,-99.99,,2013-02-14 18:32:00,
2013-02-14 13:42:00,35.0,32.0,-100.00,SSE,165,12.0,22.0,91,0.00,,,-99.99,,2013-02-14 18:42:00,
2013-02-14 13:51:00,35.0,33.0,-100.00,SE,145,7.0,19.0,89,0.00,,,-99.99,,2013-02-14 18:51:00,
2013-02-14 14:02:00,35.0,32.0,-100.00,SE,125,9.0,17.0,88,0.00,,,-99.99,,2013-02-14 19:02:00,
2013-02-14 14:11:00,36.0,32.0,-100.00,SE,145,9.0,19.0,86,0.00,,,-99.99,,2013-02-14 19:11:00,
2013-02-14 14:21:00,37.0,32.0,-100.00,SE,135,6.0,16.0,84,0.00,,,-99.99,,2013-02-14 19:21:00,
2013-02-14 14:32:00,37.0,33.0,-100.00,ESE,120,9.0,19.0,82,0.00,,,-99.99,,2013-02-14 19:32:00,
2013-02-14 14:42:00,38.0,32.0,-100.00,SSE,155,9.0,17.0,80,0.00,,,-99.99,,2013-02-14 19:42:00,
2013-02-14 14:51:00,39.0,33.0,-100.00,SSE,155,7.0,16.0,78,0.00,,,-99.99,,2013-02-14 19:51:00,
2013-02-14 15:01:00,39.0,33.0,-100.00,SE,145,9.0,16.0,77,0.00,,,-99.99,,2013-02-14 20:01:00,
2013-02-14 15:11:00,40.0,33.0,-100.00,SSW,200,11.0,19.0,75,0.00,,,-99.99,,2013-02-14 20:11:00,
2013-02-14 15:21:00,41.0,33.0,-100.00,SE,145,9.0,19.0,73,0.00,,,-99.99,,2013-02-14 20:21:00,
2013-02-14 15:32:00,41.0,33.0,-100.00,South,170,9.0,17.0,73,0.00,,,-99.99,,2013-02-14 20:32:00,
2013-02-14 15:42:00,41.0,33.0,-100.00,SSE,160,8.0,16.0,72,0.00,,,-99.99,,2013-02-14 20:42:00,
2013-02-14 15:52:00,42.0,34.0,-100.00,South,175,5.0,14.0,72,0.00,,,-99.99,,2013-02-14 20:52:00,
2013-02-14 16:02:00,42.0,34.0,-100.00,South,170,9.0,15.0,71,0.00,,,-99.99,,2013-02-14 21:02:00,
2013-02-14 16:11:00,42.0,34.0,-100.00,SE,145,6.0,16.0,70,0.00,,,-99.99,,2013-02-14 21:11:00,
2013-02-14 16:21:00,43.0,34.0,-100.00,South,175,6.0,15.0,70,0.00,,,-99.99,,2013-02-14 21:21:00,
2013-02-14 16:32:00,43.0,34.0,-100.00,SSW,200,7.0,14.0,70,0.00,,,-99.99,,2013-02-14 21:32:00,
2013-02-14 16:42:00,44.0,34.0,-100.00,SSW,205,7.0,13.0,68,0.00,,,-99.99,,2013-02-14 21:42:00,
2013-02-14 16:51:00,44.0,34.0,-100.00,South,190,7.0,17.0,68,0.00,,,-99.99,,2013-02-14 21:51:00,
2013-02-14 17:02:00,44.0,34.0,-100.00,SSW,200,6.0,14.0,68,0.00,,,-99.99,,2013-02-14 22:02:00,
2013-02-14 17:11:00,45.0,33.0,-100.00,SSW,200,12.0,20.0,64,0.00,,,-99.99,,2013-02-14 22:11:00,
2013-02-14 17:21:00,45.0,33.0,-100.00,SW,215,17.0,25.0,62,0.00,,,-99.99,,2013-02-14 22:21:00,
2013-02-14 17:32:00,45.0,33.0,-100.00,SSW,200,9.0,22.0,63,0.00,,,-99.99,,2013-02-14 22:32:00,
2013-02-14 17:42:00,45.0,33.0,-100.00,South,190,11.0,22.0,63,0.00,,,-99.99,,2013-02-14 22:42:00,
2013-02-14 17:51:00,44.0,33.0,-100.00,SSW,200,12.0,22.0,64,0.00,,,-99.99,,2013-02-14 22:51:00,
2013-02-14 18:01:00,44.0,33.0,-100.00,South,190,13.0,19.0,63,0.00,,,-99.99,,2013-02-14 23:01:00,
2013-02-14 18:11:00,44.0,33.0,-100.00,SSW,210,12.0,21.0,63,0.00,,,-99.99,,2013-02-14 23:11:00,
2013-02-14 18:21:00,44.0,32.0,-100.00,SSW,210,10.0,21.0,64,0.00,,,-99.99,,2013-02-14 23:21:00,
2013-02-14 18:32:00,43.0,32.0,-100.00,SSW,205,11.0,19.0,64,0.00,,,-99.99,,2013-02-14 23:32:00,
2013-02-14 18:42:00,43.0,33.0,-100.00,WSW,240,14.0,25.0,66,0.00,,,-99.99,,2013-02-14 23:42:00,
2013-02-14 18:52:00,42.0,33.0,-100.00,SW,225,11.0,17.0,68,0.00,,,-99.99,,2013-02-14 23:52:00,
2013-02-14 19:01:00,41.0,34.0,-100.00,West,260,12.0,24.0,73,0.00,,,-99.99,,2013-02-15 00:01:00,
2013-02-14 19:11:00,40.0,34.0,-100.00,West,260,13.0,19.0,76,0.00,,,-99.99,,2013-02-15 00:11:00,
2013-02-14 19:22:00,40.0,33.0,-100.00,WSW,255,11.0,22.0,77,0.00,,,-99.99,,2013-02-15 00:22:00,
2013-02-14 19:32:00,39.0,33.0,-100.00,WSW,255,16.0,25.0,77,0.00,,,-99.99,,2013-02-15 00:32:00,
2013-02-14 19:42:00,38.0,32.0,-100.00,WSW,240,14.0,25.0,78,0.00,,,-99.99,,2013-02-15 00:42:00,
2013-02-14 19:51:00,37.0,31.0,-100.00,WSW,255,9.0,19.0,78,0.00,,,-99.99,,2013-02-15 00:51:00,
2013-02-14 20:02:00,36.0,29.0,-100.00,West,265,14.0,27.0,74,0.00,,,-99.99,,2013-02-15 01:02:00,
2013-02-14 20:11:00,36.0,29.0,-100.00,WSW,250,11.0,18.0,74,0.00,,,-99.99,,2013-02-15 01:11:00,
2013-02-14 20:21:00,36.0,29.0,-100.00,WSW,245,10.0,17.0,74,0.00,,,-99.99,,2013-02-15 01:21:00,
2013-02-14 20:32:00,35.0,28.0,-100.00,WSW,255,7.0,16.0,74,0.00,,,-99.99,,2013-02-15 01:32:00,
2013-02-14 20:41:00,35.0,28.0,-100.00,West,265,9.0,19.0,76,0.00,,,-99.99,,2013-02-15 01:41:00,
2013-02-14 20:51:00,34.0,28.0,-100.00,West,265,8.0,14.0,77,0.00,,,-99.99,,2013-02-15 01:51:00,
2013-02-14 21:01:00,34.0,28.0,-100.00,WSW,255,11.0,17.0,77,0.00,,,-99.99,,2013-02-15 02:01:00,
2013-02-14 21:11:00,35.0,28.0,-100.00,West,265,15.0,24.0,77,0.00,,,-99.99,,2013-02-15 02:11:00,
2013-02-14 21:21:00,35.0,28.0,-100.00,WSW,245,12.0,19.0,76,0.00,,,-99.99,,2013-02-15 02:21:00,
2013-02-14 21:32:00,35.0,28.0,-100.00,WSW,240,11.0,17.0,75,0.00,,,-99.99,,2013-02-15 02:32:00,
2013-02-14 21:41:00,35.0,27.0,-100.00,SW,220,12.0,25.0,71,0.00,,,-99.99,,2013-02-15 02:41:00,
2013-02-14 21:52:00,35.0,27.0,-100.00,SW,235,11.0,19.0,70,0.00,,,-99.99,,2013-02-15 02:52:00,
2013-02-14 22:02:00,35.0,27.0,-100.00,WSW,250,13.0,22.0,70,0.00,,,-99.99,,2013-02-15 03:02:00,
2013-02-14 22:11:00,35.0,27.0,-100.00,WSW,250,13.0,22.0,70,0.00,,,-99.99,,2013-02-15 03:11:00,
2013-02-14 22:22:00,35.0,26.0,-100.00,West,270,10.0,22.0,67,0.00,,,-99.99,,2013-02-15 03:22:00,
2013-02-14 22:32:00,36.0,25.0,-100.00,SW,235,17.0,25.0,65,0.00,,,-99.99,,2013-02-15 03:32:00,
2013-02-14 22:42:00,35.0,26.0,-100.00,WSW,240,9.0,19.0,68,0.00,,,-99.99,,2013-02-15 03:42:00,
2013-02-14 22:52:00,35.0,26.0,-100.00,WSW,240,11.0,17.0,69,0.00,,,-99.99,,2013-02-15 03:52:00,
2013-02-14 23:01:00,35.0,26.0,-100.00,WSW,245,7.0,15.0,69,0.00,,,-99.99,,2013-02-15 04:01:00,
2013-02-14 23:11:00,35.0,26.0,-100.00,WSW,245,10.0,18.0,69,0.00,,,-99.99,,2013-02-15 04:11:00,
2013-02-14 23:21:00,35.0,26.0,-100.00,WSW,250,9.0,16.0,69,0.00,,,-99.99,,2013-02-15 04:21:00,
2013-02-14 23:32:00,35.0,26.0,-100.00,West,260,9.0,21.0,69,0.00,,,-99.99,,2013-02-15 04:32:00,
2013-02-14 23:42:00,35.0,26.0,-100.00,West,260,9.0,21.0,69,0.00,,,-99.99,,2013-02-15 04:42:00,
2013-02-14 23:52:00,35.0,26.0,-100.00,West,260,9.0,21.0,69,0.00,,,-99.99,,2013-02-15 04:52:00,